Home   Weather   London   Past weeks

Flag for Canada Past Weather in London, Ontario, Canada — Yesterday and Last 2 Weeks

Now
66 °F

Overcast.


Feels Like: 66 °F
Forecast: 58 / 72 °F
Wind: 3 mph from West

Location: London Weather Station

Current Time: Jun 23, 2017 at 11:34:54 pm

Latest Report: Jun 23, 2017 at 11:00 pm


Visibility: 15 mi

Pressure: 29.65 "Hg

Humidity: 94%

Dew Point: 64 °F

Location of LondonLocation

Past Weather in London — Graph

°F

London Temperature Yesterday

Maximum temperature yesterday: 81 °F (at 5:00 pm)
Minimum temperature yesterday: 54 °F (at 4:00 am)
Average temperature yesterday: 67 °F

High & Low Weather Summary for the Past Weeks

 TemperatureHumidityPressure
High88 °F (Jun 12, 4:00 pm)100% (Jun 10, 5:00 am)30.06 "Hg (Jun 10, 5:00 am)
Low52 °F (Jun 9, 5:00 am)40% (Jun 14, 9:00 pm)29.53 "Hg (Jun 23, 1:13 pm)
Average70 °F74%29.84 "Hg
* Reported Jun 8 10:00 pm — Jun 23 10:00 pm, London. Weather by CustomWeather, © 2017

Note: Actual official high and low records may vary slightly from our data, if they occured in-between our weather recording intervals... More about our weather records

Advertising

London Weather History for the Previous 24 Hours

Scroll right to see more
 ConditionsComfort  
Time TempWeatherWind HumidityBarometerVisibility
10:00 pm
Fri, Jun 23
66 °FPassing clouds.3 mph94%29.64 "Hg15 mi
9:00 pm68 °FBroken clouds.5 mph94%29.61 "Hg15 mi
8:00 pm70 °FMostly cloudy.8 mph88%29.60 "Hg15 mi
7:00 pm70 °FMore clouds than sun.8 mph88%29.58 "Hg15 mi
6:00 pm72 °FCloudy.12 mph83%29.57 "Hg15 mi
5:00 pm73 °FMore clouds than sun.12 mph89%29.56 "Hg15 mi
4:17 pm73 °FSprinkles. Broken clouds.8 mph89%29.56 "Hg15 mi
4:00 pm73 °FCloudy.7 mph89%29.56 "Hg15 mi
3:00 pm73 °FMostly cloudy.8 mph89%29.57 "Hg15 mi
2:00 pm72 °FPartly sunny.9 mph88%29.57 "Hg15 mi
1:13 pm70 °FPartly sunny.13 mph94%29.53 "Hg15 mi
1:00 pm70 °FSprinkles. Broken clouds.9 mph94%29.53 "Hg15 mi
12:25 pm68 °FSprinkles. More clouds than sun.9 mph94%29.57 "Hg10 mi
12:00 pm68 °FLow clouds.10 mph94%29.59 "Hg15 mi
11:25 am68 °FLow clouds.6 mph94%29.62 "Hg15 mi
11:00 am66 °FSprinkles. Fog.6 mph100%29.63 "Hg4 mi
9:56 am66 °FLots of rain. Fog.5 mph94%29.64 "Hg2 mi
9:22 am66 °FSprinkles. Fog.5 mph100%29.65 "Hg2 mi
9:08 am66 °FRain showers. Fog.3 mph100%29.65 "Hg1 mi
8:22 am66 °FSprinkles. Fog.5 mph100%29.65 "Hg2 mi
8:10 am66 °FSprinkles. Fog.3 mph100%29.65 "Hg2 mi
7:27 am66 °FSprinkles. Fog.8 mph100%29.66 "Hg5 mi
7:22 am66 °FRain showers. Fog.10 mph100%29.66 "Hg2 mi
6:43 am70 °FSprinkles. Fog.9 mph94%29.66 "Hg5 mi
6:17 am70 °FSprinkles. Fog.10 mph94%29.66 "Hg6 mi
6:00 am70 °FOvercast.12 mph94%29.66 "Hg15 mi
5:00 am72 °FOvercast.13 mph88%29.67 "Hg15 mi
4:00 am70 °FPassing clouds.13 mph94%29.69 "Hg15 mi
3:00 am72 °FPartly cloudy.13 mph88%29.72 "Hg12 mi
2:00 am72 °FOvercast.7 mph94%29.75 "Hg12 mi
1:24 am72 °FSprinkles. Overcast.7 mph94%29.75 "Hg15 mi
1:00 am72 °FOvercast.10 mph94%29.75 "Hg15 mi
12:00 am72 °FSprinkles. Mostly cloudy.12 mph88%29.78 "Hg15 mi
11:00 pm
Thu, Jun 22
72 °FOvercast.14 mph88%29.80 "Hg15 mi
Weather by CustomWeather, © 2017

See weather overviewHow to use our weather pages